Regional Weather Roundup
Issued by NWS

Home | Current Version | Previous Version | Text Only | Print | Product List | Glossary Off
Versions: 1 2 3 4 5 6 7 8 9 10 11 12 13 14 15 16 17 18 19 20 21 22 23 24 25 26 27 28 29 30 31 32 33 34 35 36 37 38 39 40 41 42 43 44 45 46 47 48 49 50

000
ASUS43 KLOT 232100
RWRIL

ILLINOIS REGIONAL WEATHER ROUNDUP
NATIONAL WEATHER SERVICE CHICAGO/ROMEOVILLE IL
400 PM CDT WED JUL 23 2014

NOTE: "FAIR" INDICATES FEW OR NO CLOUDS BELOW 12,000 FEET WITH NO
SIGNIFICANT WEATHER AND/OR OBSTRUCTIONS TO VISIBILITY.

* THESE STATIONS ARE NOT UNDER NWS QUALITY CONTROL. THEY ALSO MAY NOT
  REPORT WEATHER SUCH AS PRECIPITATION OR FOG.

ILZ001-002-007-009-015-016-024-232200-
NORTHWEST ILLINOIS

CITY           SKY/WX    TMP DP  RH WIND       PRES   REMARKS
MOLINE         MOSUNNY   80  56  43 N8        30.14F HX  80
STERLING*      PTSUNNY   79  59  50 NE9       30.15S HX  80
$$

ILZ003-004-008-010-011-017-018-232200-
NORTH CENTRAL ILLINOIS

CITY           SKY/WX    TMP DP  RH WIND       PRES   REMARKS
ROCKFORD       PTSUNNY   76  52  43 N16G22    30.16F
FREEPORT*      MOSUNNY   75  58  55 NE9G17    30.18F
DE KALB*       MOSUNNY   72  54  53 N8        30.14F
$$

ILZ005-006-012>014-019>023-232200-
NORTHEAST ILLINOIS

CITY           SKY/WX    TMP DP  RH WIND       PRES   REMARKS
CHICAGO-OHARE  MOSUNNY   72  49  44 NE16      30.14F
CHICAGO-MIDWAY MOSUNNY   73  51  46 NE21G26   30.14S
AURORA         SUNNY     77  52  41 NE8       30.12F
LANSING*       SUNNY     67  50  53 N15G28    30.14S
WAUKEGAN       SUNNY     65  52  62 N15G24    30.15F
DUPAGE AIRPORT SUNNY     77  53  43 NE17G23   30.12F
WHEELING       SUNNY     69  53  56 NE12G23   30.16F
NORTHERLY ISL    N/A     66  53  63 N15         N/A
$$

LMZ740>746-232200-
SOUTHERN LAKE MICHIGAN

STATION/POSITION SKY/WX   TEMP    WIND        PRES    VSBY  WAVE
                          AIR SEA DIR/SP/G                  HT/PER
                          (F)     (DEG/KT/KT) (MB)    (MI)  (FT/S)
SOUTHERN BUOY              59 60  350/ 19/ 21 1021.1F         4/ 6
WAUKEGAN HARBOR            61      20/ 16/ 19 1022.0F
HARRISON CRIB              62     360/ 23/ 26   N/A
BURNHAM HARBOR             65     340/  9/ 17   N/A
CALUMET HARBOR             65     350/ 12/ 19 1019.7F
MICHIGAN CITY              62     350/ 21/ 24   N/A
$$

ILZ025>027-034>036-040-047-049-050-058-095>099-232200-
WEST-CENTRAL ILLINOIS

CITY           SKY/WX    TMP DP  RH WIND       PRES   REMARKS
QUINCY         MOSUNNY   80  62  54 NE16      30.11F HX  81
GALESBURG*     MOSUNNY   79  59  50 N15       30.14F HX  80
MACOMB*        SUNNY     78  59  52 NE12      30.15F
$$

ILZ028>032-037-038-041>044-048-051>054-059>061-232200-
CENTRAL ILLINOIS

CITY           SKY/WX    TMP DP  RH WIND       PRES   REMARKS
PONTIAC        MOSUNNY   77  57  50 NE15      30.11S
BLOOMINGTON    MOSUNNY   75  55  50 N16G23    30.12F
DECATUR        SUNNY     82  61  47 N14       30.09S HX  83
PEORIA         MOSUNNY   82  57  42 N9        30.12S HX  82
LACON*         MOSUNNY   79  57  47 N8        30.11F
SPRINGFIELD    PTSUNNY   80  61  52 NE14      30.10S HX  81
TAYLORVILLE    NOT AVBL
$$

ILZ033-039-045-046-055>057-062-063-232200-
EAST-CENTRAL ILLINOIS

CITY           SKY/WX    TMP DP  RH WIND       PRES   REMARKS
CHAMPAIGN      SUNNY     76  60  57 N20G25    30.07F
MATTOON        SUNNY     79  63  57 N15       30.04F HX  80
PARIS*         PTSUNNY   77  65  65 N9G20     30.05F
$$

ILZ079-100>102-232200-
SOUTHWEST ILLINOIS

CITY           SKY/WX    TMP DP  RH WIND       PRES   REMARKS
ALTON          PTSUNNY   81  70  69 N18       30.07S HX  84
BELLEVILLE     PTSUNNY   84  71  65 N13G18    30.03F HX  89
CAHOKIA*       MOSUNNY   86  69  56 NE17G24   30.05S HX  90
SPARTA*        CLOUDY    79  72  78 N13       30.04R HX  82
$$

ILZ064>066-069>071-074>076-080>082-084>086-088>090-092>094-232200-
SOUTH-CENTRAL ILLINOIS

CITY           SKY/WX    TMP DP  RH WIND       PRES   REMARKS
CARBONDALE     CLOUDY    81  69  67 VRB3      30.01R HX  84
MARION         PTSUNNY   81  70  69 NW12      30.02F HX  84
MT. VERNON     CLOUDY    73  66  78 N5        30.04S
SALEM*         PTSUNNY   82  71  68 N7        30.03F HX  86
$$

ILZ067-068-072-073-078-083-087-091-232200-
SOUTHEAST ILLINOIS

CITY           SKY/WX    TMP DP  RH WIND       PRES   REMARKS
FLORA*         PTSUNNY   74  68  82 N3        30.04S
FAIRFIELD*     CLOUDY    73  72  94 NW3       30.02F FOG
HARRISBURG*    CLOUDY    78  71  79 N5        30.02S HX  80
ROBINSON*      CLOUDY    75  69  84 N7        30.03F
$$

ABBREVIATIONS USED IN REMARKS
   TC - TEMPERATURE IN CELSIUS
  WCI - WIND CHILL INDEX
   HX - HEAT INDEX
  VSB - VISIBILITY
$$



USA.gov is the U.S. government's official web portal to all federal, state and local government web resources and services.